Wind_Speed
1 1 2 2 3 4 4 5 5 5 5 5 5 6 7 6 6 6 6 6 5 5 5 4 4 5 5 5 6 6 6 6 7 8 8 7 8 8 9 9 9 8 7
1 1 1 2 3 4 4 5 5 4 4 5 6 6 6 6 6 6 6 6 6 5 5 4 4 5 5 6 6 6 6 7 8 8 8 8 8 9 10 10 9 9 8
1 1 2 2 3 4 4 4 4 4 5 6 6 6 7 7 6 6 6 6 5 5 5 5 5 5 6 6 6 6 7 7 8 8 8 8 8 9 10 10 10 9 9
2 2 2 3 3 3 3 3 4 4 5 5 6 6 6 6 7 6 6 6 6 6 6 5 5 6 6 5 6 7 7 7 8 8 9 9 8 9 10 10 10 10 10
2 2 3 3 3 3 3 3 3 4 4 5 6 6 6 7 7 7 7 6 6 6 6 6 6 6 6 6 6 7 7 7 8 9 9 9 9 9 9 10 10 10 10
3 3 2 3 3 2 2 3 4 4 4 4 6 6 6 7 7 7 7 7 6 6 7 6 6 6 6 6 6 7 7 7 8 8 9 9 9 9 9 9 10 10 10
4 3 3 3 3 3 3 3 3 3 4 4 5 6 6 7 7 7 7 7 7 7 7 6 6 6 5 5 6 6 7 7 7 8 9 9 9 9 10 10 10 10 10
4 4 4 4 3 3 3 3 2 3 4 5 5 6 6 7 7 7 7 7 7 7 7 6 5 5 5 5 6 6 6 6 7 7 8 9 10 10 10 10 11 11 10
5 5 5 4 3 3 4 3 2 3 4 5 5 6 6 7 7 7 7 7 6 6 6 5 5 5 5 5 5 5 6 6 6 7 8 9 9 9 10 10 10 10 10
5 5 5 5 4 3 4 3 3 4 5 5 5 5 6 7 7 7 7 6 6 6 6 5 5 4 5 5 5 5 5 6 6 7 8 8 9 9 9 10 10 10 10
7 6 5 5 5 4 4 4 3 3 4 4 4 5 6 6 6 7 7 7 6 6 6 5 5 5 5 5 5 5 5 5 6 7 7 8 8 8 8 9 9 9 9
7 7 6 5 5 5 4 3 3 3 4 4 4 5 5 6 6 7 7 7 6 6 6 5 5 5 4 4 5 5 4 5 5 6 6 7 7 7 8 8 8 8 9
8 7 6 6 5 5 4 3 3 4 4 4 4 4 5 6 7 7 7 7 6 6 5 5 5 4 3 3 3 4 4 4 5 5 6 6 6 6 6 7 7 7 7
7 7 7 6 5 5 4 3 3 3 3 3 4 4 5 6 6 6 7 7 6 6 5 5 4 3 3 2 3 4 4 4 4 5 6 6 6 5 6 6 6 7 7
7 6 6 6 5 5 4 4 4 3 3 3 4 4 4 5 6 6 6 6 6 6 5 5 4 3 2 2 2 3 3 4 4 5 5 6 6 6 5 5 6 6 6
7 6 7 7 6 6 5 4 3 2 2 3 3 4 4 5 6 6 6 6 6 5 5 4 4 3 3 2 1 1 2 3 4 5 5 5 5 5 5 5 5 5 5
8 7 7 6 6 6 5 4 3 3 3 3 3 3 4 5 6 6 6 6 5 5 5 4 3 3 2 2 0 1 2 3 4 5 5 5 4 4 5 5 4 4 4
9 8 8 7 6 6 5 4 4 3 3 3 3 3 4 5 5 6 6 5 5 5 4 3 3 2 2 1 0 0 1 2 2 3 4 5 5 4 4 4 5 5 5
9 9 8 8 7 7 6 5 4 3 2 2 2 2 4 5 5 5 5 5 5 4 3 3 2 2 2 1 2 2 2 2 1 2 3 3 4 5 5 4 4 5 5
10 9 9 8 8 7 6 5 4 3 2 2 2 2 3 4 5 5 5 5 5 4 3 3 2 2 1 2 2 2 2 2 1 1 1 1 3 4 4 5 5 5 5
10 9 9 9 8 7 6 6 5 3 3 2 2 2 2 3 3 4 5 5 5 4 4 3 2 2 1 1 1 1 1 1 2 1 1 1 1 2 4 4 4 5 5
10 9 9 8 8 7 7 6 5 4 4 3 2 2 2 3 3 4 4 5 5 4 3 2 2 2 1 1 0 0 1 1 2 2 1 2 2 2 2 4 4 5 5
9 9 9 9 8 7 7 6 6 5 4 3 2 1 1 2 3 4 4 5 5 4 3 2 2 2 1 1 0 1 1 1 2 2 2 2 3 3 3 4 5 6 6
8 8 8 8 8 7 7 6 5 5 4 4 3 2 1 2 3 3 4 4 4 4 3 3 2 2 2 1 1 1 1 2 2 3 3 3 4 4 5 5 5 6 6
9 9 9 9 8 7 7 6 6 5 5 4 3 2 2 2 3 3 4 4 4 4 4 3 2 2 2 2 1 1 1 2 2 3 4 4 4 5 6 7 7 7 7
10 10 9 9 8 8 7 7 7 6 5 5 4 3 3 3 3 4 4 4 4 4 4 3 3 3 2 2 2 2 2 3 3 4 5 5 6 6 6 7 8 8 9
Wind_Direction
6 12 358 0 4 360 4 11 9 10 17 16 10 4 360 356 353 351 346 340 333 319 309 298 286 277 271 262 254 241 233 229 231 229 228 225 222 218 210 205 205 205 208
326 351 340 347 350 352 356 7 11 12 9 5 0 356 352 346 346 344 339 335 330 325 313 298 288 282 274 264 252 240 234 229 230 230 229 229 225 221 216 212 216 218 218
238 287 320 314 330 341 348 358 4 4 1 358 356 354 350 344 347 345 337 335 328 325 317 298 286 281 275 265 253 245 236 233 231 229 226 226 223 221 219 217 222 224 222
227 283 296 286 312 330 338 349 354 351 350 354 358 355 352 349 348 345 339 335 325 319 318 309 292 285 276 269 258 248 240 233 229 226 224 224 224 223 219 216 220 223 219
238 267 276 280 303 325 340 341 350 351 349 353 355 355 352 347 344 340 334 329 324 318 316 314 303 290 276 265 260 252 241 234 229 224 224 226 226 226 222 217 217 218 219
241 250 264 275 286 302 323 329 341 345 348 349 350 351 349 346 344 339 332 326 323 319 315 313 308 296 284 265 259 254 246 236 231 229 226 227 227 224 221 219 217 220 218
241 249 263 275 269 279 298 310 329 345 346 342 345 346 346 345 346 340 333 327 323 320 316 315 306 295 284 269 258 253 248 236 233 233 226 224 225 223 222 219 219 220 221
244 255 267 273 272 276 280 286 309 334 341 342 343 344 348 349 348 344 342 334 326 321 318 313 304 293 284 271 257 251 248 240 235 231 225 223 223 222 222 221 222 224 224
246 250 261 256 267 266 254 272 303 323 333 335 339 342 347 347 348 345 343 339 332 326 318 312 304 289 282 270 263 255 248 240 233 229 224 221 223 224 222 224 226 228 227
250 247 256 254 255 257 256 269 288 304 315 324 332 340 346 347 347 345 341 338 335 334 327 316 310 296 281 267 262 259 247 234 227 227 223 221 224 225 225 227 228 232 232
246 243 251 250 252 254 258 277 289 302 309 320 329 340 344 345 346 343 339 336 333 333 332 322 314 301 289 266 255 251 244 227 222 223 221 219 219 222 225 224 226 229 231
243 241 244 246 254 257 262 275 288 300 303 311 328 340 340 341 345 344 340 337 335 334 333 324 314 309 299 269 252 247 238 222 219 221 217 214 215 217 220 221 223 225 227
244 238 236 243 250 252 255 265 284 298 307 311 323 335 339 340 341 343 341 336 335 333 331 327 322 321 309 278 251 243 239 223 221 217 210 208 211 212 215 215 216 219 224
240 236 233 240 252 246 244 265 277 295 313 315 320 327 331 336 341 343 347 343 338 334 333 335 337 338 320 283 248 239 236 227 216 211 208 207 209 210 211 215 216 221 228
235 235 230 238 237 234 236 252 270 287 293 305 321 331 334 338 341 345 346 346 344 343 339 342 349 350 336 294 256 235 224 217 208 205 207 208 210 210 209 215 217 222 230
241 235 222 227 225 230 238 252 260 275 289 303 320 332 336 338 341 342 343 345 347 349 349 349 351 353 357 340 303 210 207 211 207 210 208 204 209 211 209 213 218 223 229
237 229 225 224 223 223 229 238 253 262 283 301 314 331 337 341 345 345 347 351 352 354 355 357 357 355 355 355 338 194 197 199 202 209 211 210 212 210 209 212 216 224 227
225 220 221 224 225 225 224 234 247 254 282 301 313 330 342 348 355 358 357 357 356 357 358 5 15 22 13 15 42 143 173 184 203 206 209 209 209 208 207 212 220 228 231
225 224 224 228 233 233 230 234 240 241 270 293 313 330 348 353 358 3 4 3 2 5 7 11 26 38 57 75 90 118 144 152 171 184 192 202 211 215 216 221 233 239 240
225 224 224 227 231 229 227 229 227 225 252 277 306 328 349 355 359 4 8 12 12 14 17 21 31 45 71 84 96 115 134 143 158 185 172 191 217 221 224 230 242 246 249
216 217 222 226 228 225 220 217 219 228 245 259 289 309 335 348 358 7 15 17 15 16 17 23 28 36 57 64 85 123 160 167 177 183 196 201 223 232 237 240 249 252 260
216 220 219 224 228 221 216 218 228 236 243 249 272 283 319 341 357 8 12 9 5 5 8 15 25 28 26 17 99 185 218 215 212 212 223 231 244 249 249 250 254 256 266
221 222 224 224 218 213 215 221 229 235 237 236 250 270 318 344 0 9 10 7 3 3 7 9 8 5 15 359 287 256 234 228 228 238 246 251 255 254 257 260 260 263 269
219 217 218 216 210 209 217 225 229 233 235 233 238 250 301 332 345 355 358 359 358 4 13 10 7 9 2 352 325 255 241 248 249 246 250 258 262 259 260 264 266 269 272
216 215 211 210 210 211 215 225 228 228 230 224 228 246 283 311 328 334 340 347 350 353 358 359 354 349 340 336 321 292 271 262 259 259 259 263 266 266 266 266 265 267 273
219 214 211 209 208 210 217 225 227 228 227 224 229 245 269 296 313 320 328 335 341 346 349 353 351 348 341 327 310 299 289 278 271 276 271 268 267 267 271 272 268 270 272
Height
5884 5884 5884 5883 5883 5882 5882 5881 5881 5880 5880 5879 5879 5879 5878 5878 5877 5877 5876 5876 5876 5876 5876 5876 5876 5876 5877 5877 5877 5878 5879 5880 5880 5881 5882 5883 5884 5885 5887 5888 5890 5891 5892
5884 5884 5884 5883 5883 5882 5882 5881 5881 5881 5880 5880 5879 5879 5878 5878 5877 5876 5876 5876 5875 5875 5875 5875 5875 5875 5876 5876 5876 5876 5877 5878 5879 5880 5881 5882 5883 5884 5886 5887 5889 5890 5891
5884 5883 5883 5883 5883 5882 5882 5881 5881 5881 5880 5880 5879 5879 5878 5877 5876 5876 5875 5875 5875 5875 5874 5874 5874 5874 5874 5874 5875 5875 5876 5877 5878 5879 5880 5881 5882 5883 5884 5886 5888 5889 5890
5883 5883 5883 5883 5883 5882 5882 5881 5881 5880 5880 5880 5879 5878 5878 5877 5876 5876 5875 5874 5874 5874 5873 5873 5873 5873 5873 5873 5873 5874 5875 5875 5876 5877 5879 5880 5881 5882 5883 5885 5886 5888 5889
5883 5883 5883 5883 5882 5882 5882 5881 5881 5880 5880 5879 5879 5878 5877 5877 5876 5875 5874 5874 5873 5873 5872 5872 5872 5872 5872 5872 5872 5872 5873 5874 5875 5876 5877 5879 5880 5881 5882 5883 5885 5886 5887
5882 5882 5882 5882 5882 5882 5881 5881 5881 5880 5880 5879 5879 5878 5877 5876 5875 5874 5874 5873 5872 5872 5871 5871 5870 5870 5870 5870 5870 5871 5871 5872 5873 5874 5876 5877 5878 5879 5880 5882 5883 5885 5886
5881 5881 5881 5881 5881 5881 5881 5881 5881 5880 5880 5879 5879 5878 5877 5876 5875 5874 5873 5872 5871 5871 5870 5869 5869 5869 5868 5869 5869 5869 5870 5870 5872 5873 5874 5875 5877 5878 5879 5881 5882 5883 5884
5881 5881 5881 5881 5881 5881 5880 5880 5880 5880 5879 5879 5879 5878 5877 5876 5875 5873 5872 5871 5870 5869 5869 5868 5868 5867 5867 5867 5868 5868 5868 5869 5870 5871 5872 5874 5875 5876 5878 5879 5880 5881 5883
5879 5880 5880 5880 5880 5880 5880 5880 5880 5879 5879 5879 5878 5877 5876 5875 5874 5873 5872 5870 5869 5869 5868 5867 5867 5867 5866 5866 5866 5867 5867 5868 5869 5870 5871 5872 5873 5875 5876 5877 5879 5880 5881
5878 5879 5879 5879 5879 5879 5879 5879 5879 5879 5879 5878 5878 5877 5876 5875 5873 5872 5871 5870 5869 5868 5867 5866 5866 5866 5865 5865 5865 5866 5866 5867 5867 5868 5870 5871 5872 5873 5874 5876 5877 5878 5879
5877 5878 5878 5878 5878 5878 5878 5878 5878 5878 5878 5878 5877 5876 5875 5874 5873 5872 5870 5869 5868 5867 5866 5866 5865 5864 5864 5864 5864 5865 5865 5866 5866 5867 5868 5869 5870 5872 5873 5874 5875 5877 5878
5876 5876 5877 5877 5877 5877 5877 5877 5877 5877 5877 5877 5876 5876 5875 5874 5872 5871 5870 5869 5868 5866 5866 5865 5864 5864 5863 5863 5863 5864 5864 5865 5866 5866 5867 5868 5869 5870 5872 5873 5874 5875 5876
5875 5875 5875 5876 5876 5876 5877 5877 5877 5877 5876 5876 5876 5875 5874 5873 5872 5870 5869 5868 5867 5866 5865 5864 5863 5863 5862 5862 5863 5863 5864 5864 5865 5866 5867 5868 5868 5869 5870 5872 5873 5874 5875
5873 5873 5874 5874 5875 5875 5876 5876 5876 5876 5876 5876 5875 5874 5873 5872 5871 5870 5869 5867 5866 5865 5864 5863 5862 5862 5862 5862 5862 5862 5863 5863 5864 5865 5866 5867 5868 5869 5870 5871 5872 5873 5873
5872 5872 5873 5874 5874 5875 5875 5876 5876 5876 5876 5875 5875 5874 5873 5872 5871 5869 5868 5867 5866 5864 5864 5863 5862 5861 5861 5861 5861 5862 5862 5863 5864 5865 5866 5866 5867 5868 5869 5870 5871 5872 5872
5870 5871 5871 5873 5873 5874 5874 5875 5875 5875 5875 5875 5874 5873 5872 5871 5870 5869 5868 5866 5865 5864 5863 5862 5862 5861 5861 5861 5861 5861 5862 5862 5863 5864 5865 5866 5867 5868 5868 5869 5870 5871 5871
5869 5870 5871 5872 5872 5873 5874 5874 5875 5875 5874 5874 5874 5873 5872 5871 5870 5868 5867 5866 5865 5863 5862 5862 5861 5861 5861 5861 5861 5861 5862 5862 5863 5863 5864 5865 5866 5867 5868 5869 5870 5870 5870
5868 5869 5870 5871 5871 5872 5873 5874 5874 5874 5874 5874 5873 5872 5871 5870 5869 5868 5867 5866 5864 5863 5862 5861 5861 5861 5861 5861 5861 5861 5862 5862 5863 5863 5864 5865 5866 5867 5867 5868 5869 5869 5870
5867 5868 5869 5870 5871 5872 5872 5873 5873 5873 5873 5873 5873 5872 5871 5870 5869 5868 5867 5865 5864 5863 5862 5862 5861 5861 5861 5861 5861 5861 5862 5862 5862 5863 5864 5864 5865 5866 5867 5868 5868 5869 5869
5865 5867 5868 5868 5870 5871 5871 5872 5873 5873 5873 5872 5872 5871 5871 5870 5869 5868 5867 5865 5864 5863 5863 5862 5861 5861 5861 5861 5861 5861 5861 5862 5863 5863 5863 5864 5865 5865 5866 5867 5867 5868 5868
5864 5865 5866 5867 5868 5869 5870 5871 5872 5872 5872 5872 5872 5871 5871 5870 5869 5868 5867 5866 5864 5864 5863 5862 5862 5861 5861 5861 5861 5862 5862 5862 5863 5863 5863 5864 5864 5865 5866 5866 5867 5867 5867
5862 5863 5865 5866 5867 5868 5869 5870 5871 5871 5871 5871 5871 5871 5870 5870 5869 5868 5867 5866 5865 5864 5863 5862 5862 5862 5861 5861 5862 5862 5862 5863 5863 5863 5863 5864 5864 5864 5865 5865 5866 5866 5866
5861 5862 5863 5865 5866 5867 5868 5869 5870 5870 5870 5871 5871 5870 5870 5869 5869 5868 5867 5866 5865 5864 5863 5863 5862 5862 5862 5862 5862 5862 5862 5862 5862 5863 5863 5863 5863 5864 5864 5864 5865 5865 5865
5860 5861 5862 5864 5865 5866 5867 5868 5869 5870 5870 5870 5870 5870 5870 5869 5869 5868 5867 5866 5865 5864 5863 5863 5862 5862 5862 5862 5862 5862 5862 5862 5862 5862 5863 5863 5863 5863 5863 5863 5864 5864 5864
5858 5860 5861 5863 5864 5865 5866 5867 5868 5868 5869 5869 5869 5869 5869 5869 5868 5868 5867 5866 5865 5864 5864 5863 5862 5862 5862 5862 5861 5861 5861 5861 5861 5861 5862 5862 5862 5862 5862 5862 5862 5862 5862
5858 5859 5860 5862 5863 5864 5865 5866 5867 5867 5868 5868 5868 5868 5868 5868 5868 5867 5867 5866 5865 5864 5864 5863 5862 5862 5862 5861 5861 5861 5860 5860 5860 5860 5860 5860 5860 5860 5860 5860 5860 5860 5860